sat.trackr.live / text

‹ back to catalog

STARLINK-35566

NORAD 66061 · 2025-235D

PAYLOAD ACTIVE UNKNOWN

§ Identity

Operator
Country
US
Launch date
2025-10-19
Launch site
AFETR
Launch vehicle
Mass (kg)
RCS (m²)

Purposes: comms

External: N2YO · Heavens-Above · Gunter

§ Orbital elements

Epoch: 2026-09-20T22:04:00.531840Z

Period
93.85 min
Inclination
53.1587°
Eccentricity
0.0000780
Mean motion
15.34402015 rev/d
Perigee alt
462.2 km
Apogee alt
463.2 km
Semi-major
6,840.8 km
B*
3.1271e-4
RAAN
57.6233°
Arg perigee
70.7504°
Mean anomaly
289.3583°
Rev number
5,282

§ Raw data

STARLINK-355661 66061U 25235D   26263.91945060  .00010205  00000+0  31271-3 0  99932 66061  53.1587  57.6233 0000780  70.7504 289.3583 15.34402015 52824

JSON: /api/v1/satellites/66061 · /tle

For live sub-satellite position, see the globe view (requires WebGL).

§ Visibility from observer

Set your observer location to see the next 7 days of passes ≥ 10°. The values pass through the URL so the page stays shareable.

No JS? Fill the form by hand. The geolocation button needs JavaScript.